Location: Unspecified
(48.7670°N, 0.0000°E)
Time: 03:41:59
(UTC+00:00)

Vanguard 2 Rocket - Pass Details

Date: 02 October 2020
Orbit: 554 x 3326 km, 32.9° (Epoch: 26 October)

Event Time Altitude Azimuth Distance (km) Brightness Sun altitude
Exits shadow 03:37:24 29° 231° (SW) 4,564 9.8 -24.0°
Maximum altitude 03:47:29 48° 180° (S) 3,953 9.9 -22.5°
Drops below altitude 10° 04:05:34 10° 114° (ESE) 5,911 11.7 -19.7°
Sets 04:09:54 0° 109° (ESE) 6,687 12.2 -19.0°
